weather.gov     
National Weather Service

Terminal Aerodrome Forecast
NWS Homepage
This page is being discontinued on March 12, 2014.
The same data is available at this site. Please update your bookmarks.
Thank you, and we apologize for the inconvenience.
Please send an email to SR-SRH.Webmaster@noaa.gov with any concerns.


Current Version
Previous Version:    01  02  03  04  05  06  07  08  09  10  11  12  13  14  15  16  17  18  19  20  21  22  23  24  25  26  27  28  29  30  
   31  32  33  34  35  36  37  38  39  40  41  42  43  44  45  
[Printable]
519
FTUS45 KSLC 240818 AAA
TAFOGD
TAF AMD
KOGD 240818Z 2408/2506 17008KT P6SM VCSH SCT020 BKN040
     FM240900 17007KT P6SM SCT030 BKN060
      TEMPO 2409/2411 3SM -SN BR SCT009 BKN025
     FM241500 34008KT P6SM VCSH SCT020 BKN040
     FM242100 32007KT P6SM SCT060 SCT120
     FM250100 17006KT P6SM SCT060 SCT120=


519
FTUS45 KSLC 240818 AAA
TAFOGD
TAF AMD
KOGD 240818Z 2408/2506 17008KT P6SM VCSH SCT020 BKN040
     FM240900 17007KT P6SM SCT030 BKN060
      TEMPO 2409/2411 3SM -SN BR SCT009 BKN025
     FM241500 34008KT P6SM VCSH SCT020 BKN040
     FM242100 32007KT P6SM SCT060 SCT120
     FM250100 17006KT P6SM SCT060 SCT120=




U.S. Dept. of Commerce
NOAA National Weather Service
1325 East West Highway
Silver Spring, MD 20910
E-mail: w-nws.webmaster@noaa.gov
Page last modified: May 16, 2007
NATIONAL WEATHER SERVICE: for Safety, for Work, for Fun - FOR LIFE